This is the latest recevied weather packets stored in our database for station/object KJ5EHN. If no packets are shown the sender has not sent any weather packets the latest 10 day(s).
| Time | Temp. | Humidity | Pressure | Rain* | Wind** | Luminosity | Snow |
|---|---|---|---|---|---|---|---|
| 1778018717 | 30.56° C | 50% | 1003.5 hPa | 0 mm | - | - | - |
| 1778018415 | 29.44° C | 51% | 1003.8 hPa | 0 mm | - | - | - |
| 1778018112 | 30° C | 51% | 1003.7 hPa | 0 mm | - | - | - |
| 1778017810 | 30.56° C | 53% | 1003.9 hPa | 0 mm | - | - | - |
| 1778017508 | 30.56° C | 54% | 1003.8 hPa | 0 mm | - | - | - |
| 1778017204 | 30.56° C | 57% | 1003.9 hPa | 0 mm | - | - | - |
| 1778016902 | 31.11° C | 57% | 1003.8 hPa | 0 mm | - | - | - |
| 1778016598 | 31.67° C | 55% | 1003.9 hPa | 0 mm | - | - | - |
| 1778016295 | 31.11° C | 56% | 1003.9 hPa | 0 mm | - | - | - |
| 1778015991 | 31.11° C | 57% | 1004.1 hPa | 0 mm | - | - | - |
| 1778015689 | 31.67° C | 58% | 1004.1 hPa | 0 mm | - | - | - |
| 1778015385 | 31.11° C | 57% | 1004.3 hPa | 0 mm | - | - | - |
| 1778015082 | 31.67° C | 57% | 1004.3 hPa | 0 mm | - | - | - |
| 1778014779 | 31.67° C | 58% | 1004.1 hPa | 0 mm | - | - | - |
| 1778014478 | 30.56° C | 59% | 1004.4 hPa | 0 mm | - | - | - |
| 1778014174 | 30° C | 60% | 1004.1 hPa | 0 mm | - | - | - |
| 1778013872 | 30.56° C | 59% | 1004.4 hPa | 0 mm | - | - | - |
| 1778013569 | 30.56° C | 59% | 1004 hPa | 0 mm | - | - | - |
| 1778013265 | 30° C | 60% | 1004.3 hPa | 0 mm | - | - | - |
| 1778012962 | 31.11° C | 59% | 1004.4 hPa | 0 mm | - | - | - |
| 1778012658 | 30° C | 61% | 1004.5 hPa | 0 mm | - | - | - |
| 1778012355 | 30° C | 60% | 1004.5 hPa | 0 mm | - | - | - |
| 1778012052 | 30° C | 60% | 1004.7 hPa | 0 mm | - | - | - |
| 1778011750 | 30° C | 60% | 1004.5 hPa | 0 mm | - | - | - |
| 1778011447 | 29.44° C | 60% | 1004.7 hPa | 0 mm | - | - | - |
* Rain latest hour (hover to see other rain measurements)
** Current wind speed in m/s (hover to see current wind gust speed)